[[{"header":{"parameterUnit":"m.s-1","parameterCategory":1,"la1":30.2991,"la2":30.254,"lo1":-89.0895,"lo2":-89.0444,"dy":0.0017,"dx":0.0017,"nx":28,"ny":28,"refTime":"2024-09-02T09:00:00:Z","depth":0,"parameterNumber":2,"parameterNumberName":"U-component_of_WINDS"},"data":[0,0,0,0,0,0,0,0,0,0,0,0,0,0,0,0,0,0,0,0,0,0,0,0,0,0,0,0,0,0,0,0,0,0,0,0,0,0,0,0,0,0,0,0,0,0,0,0,0,0,0,0,0,0,0,0,0,0,-3.6388,-3.6388,0,-3.6401,-3.6401,-3.6402,-3.6257,-3.6253,-3.6249,-3.6246,-3.6264,-3.6268,-3.6272,0,0,0,0,0,0,0,0,0,0,0,0,0,-3.6243,-3.6247,-3.6388,-3.6388,-3.6388,-3.6401,-3.6401,-3.6402,-3.6258,-3.6253,-3.6248,-3.6244,-3.6263,-3.6268,-3.6273,0,0,0,0,0,0,0,0,0,0,0,0,0,-3.6287,-3.6248,-3.6388,-3.6318,-3.6312,-3.6401,-3.6401,-3.6402,-3.6259,-3.6253,-3.6247,-3.6242,-3.6261,-3.6267,-3.6274,-3.6432,0,0,-3.6293,-3.6296,0,0,0,0,0,0,0,0,-3.6284,-3.6292,-3.6328,-3.6323,-3.6316,-3.6321,-3.6357,-3.6412,-3.6261,-3.6279,-3.6246,-3.6239,-3.6288,-3.6292,-3.6308,-3.6433,-3.6433,-3.6293,-3.6297,-3.63,-3.6302,0,0,0,0,0,0,0,-3.6281,-3.6291,-3.6393,-3.6329,-3.6322,-3.6288,-3.6287,-3.6367,-3.6317,-3.6277,-3.6267,-3.627,-3.6284,-3.6302,-3.6307,-3.6434,-3.6293,-3.6299,-3.6303,-3.6305,-3.669,-3.6696,0,0,0,0,0,0,-3.6287,-3.6289,-3.6393,-3.6394,-3.6285,-3.6295,-3.6295,-3.6326,-3.6316,-3.6309,-3.6275,-3.6263,-3.6294,-3.63,-3.6307,-3.6491,-3.63,-3.6306,-3.6309,-3.6683,-3.6691,-3.6698,0,0,0,0,0,0,-3.6285,-3.6298,-3.6392,-3.6339,-3.6348,-3.6304,-3.634,-3.6329,-3.6347,-3.6314,-3.6305,-3.6302,-3.629,-3.6298,-3.6402,-3.649,-3.6309,-3.6314,-3.6676,-3.6686,-3.6695,-3.6862,0,0,0,0,0,0,-3.6281,-3.6298,-3.6356,-3.6341,-3.6351,-3.6485,-3.6346,-3.6334,-3.6358,-3.6342,-3.6337,-3.6331,-3.6286,-3.6393,-3.6408,-3.6495,-3.6319,-3.6668,-3.668,-3.6692,-3.6848,-3.6876,-3.69,0,0,0,0,0,-3.6276,-3.6404,-3.636,-3.6373,-3.6423,-3.6491,-3.6497,-3.6441,-3.6365,-3.6424,-3.6404,-3.6331,-3.6479,-3.6405,-3.642,-3.6511,-3.6662,-3.6677,-3.6691,-3.6836,-3.687,-3.6899,0,0,0,0,0,0,-3.6431,-3.64,-3.6351,-3.6477,-3.6488,-3.6466,-3.6538,-3.6478,-3.6511,-3.6496,-3.6427,-3.6427,-3.6542,-3.6537,-3.6455,-3.6664,-3.6557,-3.6576,-3.6663,-3.6695,-3.672,-3.6718,-3.6324,0,0,0,0,0,-3.648,-3.6536,-3.6506,-3.662,-3.6628,-3.6583,-3.661,-3.6566,-3.6575,-3.6579,-3.6565,-3.6578,-3.6627,-3.6661,-3.6704,-3.6847,-3.6845,-3.6918,-3.6944,-3.6965,-3.6981,-3.7057,-3.7089,-3.6746,-3.6746,-3.6745,0,0,-3.6582,-3.6571,-3.6611,-3.6651,-3.6654,-3.6715,-3.6588,-3.6657,-3.6702,-3.659,-3.6685,-3.6677,-3.6687,-3.6811,-3.6865,-3.681,-3.7076,-3.6984,-3.7001,-3.7005,-3.7075,-3.7108,-3.7137,-3.6756,-3.6754,-3.6752,0,0,-3.6796,-3.6795,-3.6889,-3.6895,-3.69,-3.687,-3.6893,-3.6881,-3.687,-3.6965,-3.6883,-3.6936,-3.7022,-3.7032,-3.7049,-3.727,-3.7205,-3.7287,-3.7421,-3.7496,-3.7523,-3.7546,-3.7625,-3.7654,-3.7303,-3.7304,-3.7304,0,-3.6922,-3.7008,-3.6946,-3.702,-3.7041,-3.6942,-3.7038,-3.7047,-3.7068,-3.7085,-3.7023,-3.7129,-3.7129,-3.7254,-3.7308,-3.7325,-3.735,-3.7286,-3.7524,-3.7547,-3.7568,-3.7642,-3.7672,-3.7314,-3.7313,-3.7312,-3.7311,0,-3.7162,-3.7224,-3.73,-3.732,-3.735,-3.7435,-3.7387,-3.7425,-3.7379,-3.7356,-3.7455,-3.7451,-3.7492,-3.7519,-3.7476,-3.7639,-3.7605,-3.7535,-3.7426,-3.7612,-3.768,-3.7708,-3.7328,-3.7324,-3.7321,-3.7319,0,0,-3.7473,-3.7458,-3.7487,-3.7496,-3.7496,-3.7543,-3.7625,-3.7663,-3.7697,-3.7716,-3.7783,-3.7859,-3.7794,-3.7814,-3.7771,-3.7837,-3.8013,-3.7759,-3.7758,-3.7806,-3.8192,-3.8244,-3.8277,-3.797,-3.7975,-3.7979,-3.8191,0,-3.7681,-3.7818,-3.7765,-3.7906,-3.7963,-3.7871,-3.7942,-3.7951,-3.7933,-3.7979,-3.7959,-3.8014,-3.7925,-3.7935,-3.7997,-3.7978,-3.8089,-3.7963,-3.8033,-3.8036,-3.8031,-3.8313,-3.8367,-3.8567,-3.8218,-3.8222,-3.8225,0,-3.7942,-3.7969,-3.8116,-3.8107,-3.8129,-3.8194,-3.8225,-3.8271,-3.828,-3.8262,-3.8284,-3.8228,-3.8309,-3.8202,-3.8314,-3.8229,-3.8255,-3.8251,-3.8258,-3.8261,-3.8141,-3.8323,-3.863,-3.8659,-3.8267,-3.8264,-3.8261,0,-3.8153,-3.8227,-3.8324,-3.8334,-3.8326,-3.8374,-3.8373,-3.8376,-3.8403,-3.8432,-3.8449,-3.8488,-3.851,-3.8542,-3.8498,-3.8424,-3.8617,-3.8506,-3.8605,-3.8607,-3.8648,-3.8646,-3.8962,-3.8668,-3.8668,-3.8667,-3.8667,0,-3.839,-3.8483,-3.8418,-3.8478,-3.8581,-3.8521,-3.8624,-3.8614,-3.8618,-3.8675,-3.8599,-3.8655,-3.8595,-3.8646,-3.8613,-3.8711,-3.8722,-3.871,-3.87,-3.8716,-3.8718,-3.8731,-3.8716,-3.8675,-3.8674,-3.8672,-3.8671,0,-3.8641,-3.8602,-3.8702,-3.8686,-3.8684,-3.8761,-3.8748,-3.8804,-3.878,-3.8854,-3.8868,-3.8832,-3.8889,-3.8849,-3.8906,-3.8883,-3.9012,-3.8983,-3.9008,-3.9,-3.9101,-3.9092,-3.9436,-3.9478,-3.9158,-3.9162,-3.9164,0,-3.8794,-3.8863,-3.8855,-3.8887,-3.8891,-3.8944,-3.8971,-3.8916,-3.8947,-3.8964,-3.9018,-3.9068,-3.9104,-3.9199,-3.9179,-3.9223,-3.9194,-3.9312,-3.92,-3.9214,-3.9194,-3.919,-3.9197,-3.9334,-3.9337,-3.934,-3.9343,0,-3.9069,-3.9047,-3.9087,-3.9123,-3.9157,-3.9182,-3.9201,-3.9233,-3.9177,-3.9217,-3.9272,-3.9301,-3.9358,-3.9409,-3.9445,-3.9446,-3.9387,-3.9379,-3.9404,-3.942,-3.9431,-3.9425,-3.9068,-3.937,-3.9368,-3.9366,-3.9364,-3.9363,-3.9275,-3.9332,-3.9336,-3.9384,-3.9393,-3.9413,-3.9464,-3.9448,-3.9493,-3.9534,-3.95,-3.9567,-3.9576,-3.9618,-3.9627,-3.968,-3.9632,-3.9669,-3.9678,-3.9687,-3.9701,-3.9424,-3.9687,-3.9686,-3.9685,-3.9685,-3.9684,0,-3.9545,-3.9543,-3.9588,-3.9617,-3.9656,-3.9596,-3.9614,-3.9651,-3.9711,-3.9724,-3.9761,-3.9827,-3.9876,-3.9861,-3.9905,-3.9951,-3.9925,-3.9964,-3.9959,-3.9961,-3.9742,-3.9715,-3.9985,-3.9985,-3.9985,-3.9985,-3.9985,-3.9984,-3.969,-3.9784,-3.9762,-3.9861,-3.9858,-3.9922,-3.9938,-3.9957,-3.9967,-4.0043,-4.0082,-4.0072,-4.0074,-4.0119,-4.0162,-4.0156,-4.0176,-4.0226,-4.0211,-4.0006,-3.9976,-3.9948,-3.9922,-4.0231,-4.0231,-4.0425,-4.0426,-4.0428]},{"header":{"parameterUnit":"m.s-1","parameterCategory":1,"la1":30.2991,"la2":30.254,"lo1":-89.0895,"lo2":-89.0444,"dy":0.0017,"dx":0.0017,"nx":28,"ny":28,"refTime":"2024-09-02T09:00:00:Z","depth":0,"parameterNumber":3,"parameterNumberName":"V-component_of_WINDS"},"data":[0,0,0,0,0,0,0,0,0,0,0,0,0,0,0,0,0,0,0,0,0,0,0,0,0,0,0,0,0,0,0,0,0,0,0,0,0,0,0,0,0,0,0,0,0,0,0,0,0,0,0,0,0,0,0,0,0,0,-1.4311,-1.4311,0,-1.4388,-1.4389,-1.439,-1.4391,-1.439,-1.4389,-1.4388,-1.4466,-1.4469,-1.4472,0,0,0,0,0,0,0,0,0,0,0,0,0,-1.4161,-1.4164,-1.431,-1.4311,-1.4312,-1.4388,-1.4389,-1.439,-1.4391,-1.439,-1.4389,-1.4387,-1.4465,-1.4469,-1.4472,0,0,0,0,0,0,0,0,0,0,0,0,0,-1.4231,-1.4165,-1.431,-1.4322,-1.4324,-1.4388,-1.4389,-1.439,-1.4391,-1.439,-1.4388,-1.4387,-1.4464,-1.4468,-1.4473,-1.453,0,0,-1.4487,-1.4488,0,0,0,0,0,0,0,0,-1.4227,-1.4236,-1.4319,-1.4321,-1.4323,-1.4378,-1.4365,-1.4437,-1.4392,-1.4366,-1.4388,-1.4386,-1.4438,-1.4445,-1.4462,-1.4534,-1.4537,-1.4487,-1.449,-1.4492,-1.4493,0,0,0,0,0,0,0,-1.4222,-1.4233,-1.4341,-1.4321,-1.4323,-1.4323,-1.4331,-1.4379,-1.4409,-1.4368,-1.4368,-1.4377,-1.4439,-1.4458,-1.4464,-1.4538,-1.4487,-1.4491,-1.4494,-1.4495,-1.466,-1.4661,0,0,0,0,0,0,-1.4215,-1.4229,-1.4339,-1.4344,-1.4271,-1.4327,-1.4336,-1.4362,-1.4409,-1.4414,-1.4378,-1.4377,-1.4451,-1.4459,-1.4467,-1.4537,-1.4492,-1.4496,-1.4498,-1.4658,-1.466,-1.4662,0,0,0,0,0,0,-1.4212,-1.4225,-1.4336,-1.4286,-1.43,-1.4331,-1.436,-1.4364,-1.4384,-1.4417,-1.4422,-1.4393,-1.445,-1.4461,-1.4514,-1.454,-1.4498,-1.4502,-1.4656,-1.4659,-1.4661,-1.4678,0,0,0,0,0,0,-1.4208,-1.4224,-1.4247,-1.4287,-1.4303,-1.4383,-1.4362,-1.4367,-1.4392,-1.439,-1.4431,-1.4437,-1.445,-1.4508,-1.4519,-1.4545,-1.4505,-1.4654,-1.4657,-1.466,-1.4676,-1.4681,-1.4686,0,0,0,0,0,-1.4202,-1.4248,-1.4248,-1.4261,-1.4332,-1.4384,-1.4393,-1.4408,-1.4394,-1.4416,-1.4437,-1.4435,-1.4535,-1.4513,-1.4526,-1.4554,-1.4652,-1.4656,-1.466,-1.4673,-1.468,-1.4686,0,0,0,0,0,0,-1.421,-1.4254,-1.4254,-1.4314,-1.4345,-1.4384,-1.4413,-1.4414,-1.445,-1.4448,-1.4463,-1.4473,-1.4526,-1.4545,-1.452,-1.4611,-1.4592,-1.4598,-1.4598,-1.4604,-1.4609,-1.4604,-1.4509,0,0,0,0,0,-1.4218,-1.4257,-1.4293,-1.4343,-1.4359,-1.4383,-1.4406,-1.4415,-1.4448,-1.4461,-1.4486,-1.4517,-1.4556,-1.4581,-1.4618,-1.4677,-1.4686,-1.4703,-1.4708,-1.4712,-1.4718,-1.4751,-1.4759,-1.4674,-1.4674,-1.4674,0,0,-1.4237,-1.4265,-1.4289,-1.4345,-1.437,-1.441,-1.4394,-1.4437,-1.4466,-1.4467,-1.452,-1.4539,-1.4575,-1.4632,-1.4658,-1.4649,-1.4743,-1.4717,-1.472,-1.4724,-1.4755,-1.4763,-1.4771,-1.4677,-1.4676,-1.4676,0,0,-1.4291,-1.4316,-1.4361,-1.4386,-1.4425,-1.444,-1.4451,-1.4489,-1.4502,-1.4555,-1.4556,-1.4591,-1.4657,-1.4682,-1.4704,-1.4766,-1.4766,-1.4777,-1.4805,-1.4836,-1.4843,-1.4849,-1.4872,-1.488,-1.4783,-1.4783,-1.4783,0,-1.4309,-1.4369,-1.4383,-1.4426,-1.4451,-1.4453,-1.4497,-1.4521,-1.4569,-1.4586,-1.4575,-1.4657,-1.4682,-1.4745,-1.476,-1.4777,-1.4789,-1.4774,-1.4841,-1.4847,-1.4853,-1.4875,-1.4883,-1.4784,-1.4784,-1.4784,-1.4784,0,-1.439,-1.4431,-1.4462,-1.451,-1.4537,-1.4581,-1.46,-1.4626,-1.4632,-1.4648,-1.4702,-1.4731,-1.4774,-1.4789,-1.4794,-1.4853,-1.4846,-1.4838,-1.4819,-1.4862,-1.4883,-1.4892,-1.4786,-1.4785,-1.4785,-1.4785,0,0,-1.4453,-1.4506,-1.4518,-1.4539,-1.458,-1.4613,-1.4655,-1.4698,-1.472,-1.4752,-1.4789,-1.4844,-1.4836,-1.4861,-1.4869,-1.4896,-1.4944,-1.4885,-1.4886,-1.4896,-1.501,-1.5017,-1.5027,-1.4943,-1.4945,-1.4946,-1.5008,0,-1.4512,-1.459,-1.4603,-1.4671,-1.4709,-1.4711,-1.4748,-1.4777,-1.4793,-1.4828,-1.4845,-1.4884,-1.4871,-1.4885,-1.4913,-1.4933,-1.4968,-1.4928,-1.4978,-1.4979,-1.497,-1.5038,-1.5046,-1.5102,-1.5016,-1.5017,-1.5018,0,-1.4593,-1.4628,-1.47,-1.4736,-1.4752,-1.4786,-1.4825,-1.4858,-1.489,-1.49,-1.4927,-1.4931,-1.4975,-1.4952,-1.5013,-1.4986,-1.5006,-1.5019,-1.5021,-1.5028,-1.5003,-1.5047,-1.5121,-1.513,-1.5031,-1.503,-1.5029,0,-1.4633,-1.4698,-1.4749,-1.4767,-1.481,-1.4834,-1.4852,-1.4883,-1.4908,-1.4942,-1.4958,-1.4996,-1.5017,-1.5046,-1.506,-1.5042,-1.512,-1.5098,-1.5129,-1.5129,-1.5147,-1.5146,-1.5227,-1.5158,-1.5158,-1.5158,-1.5157,0,-1.4699,-1.4743,-1.4768,-1.48,-1.4848,-1.4862,-1.491,-1.4928,-1.4955,-1.499,-1.4993,-1.5025,-1.5041,-1.5076,-1.5087,-1.5135,-1.5145,-1.5154,-1.5156,-1.5154,-1.5154,-1.5169,-1.5166,-1.516,-1.5159,-1.5159,-1.5158,0,-1.4753,-1.4771,-1.4828,-1.4863,-1.4873,-1.4908,-1.4938,-1.4969,-1.4984,-1.5027,-1.5038,-1.5062,-1.5103,-1.5119,-1.5169,-1.5176,-1.5233,-1.5231,-1.5222,-1.5223,-1.5254,-1.5251,-1.5348,-1.5362,-1.5283,-1.5284,-1.5284,0,-1.4795,-1.4829,-1.4868,-1.4892,-1.4912,-1.495,-1.4975,-1.4988,-1.5014,-1.5053,-1.5079,-1.5119,-1.5153,-1.5217,-1.5239,-1.5276,-1.5277,-1.5308,-1.5283,-1.528,-1.5279,-1.5277,-1.5281,-1.5314,-1.5314,-1.5315,-1.5316,0,-1.4868,-1.4875,-1.4911,-1.495,-1.498,-1.5011,-1.5041,-1.506,-1.5078,-1.5107,-1.5149,-1.5174,-1.5225,-1.5265,-1.5304,-1.5322,-1.5322,-1.5323,-1.5333,-1.5332,-1.5325,-1.533,-1.5237,-1.5321,-1.5321,-1.532,-1.532,-1.532,-1.4918,-1.4948,-1.4981,-1.502,-1.5045,-1.5073,-1.5103,-1.5122,-1.5157,-1.52,-1.5205,-1.525,-1.528,-1.5333,-1.5352,-1.5387,-1.5379,-1.5392,-1.5396,-1.54,-1.5402,-1.5318,-1.5394,-1.5394,-1.5394,-1.5394,-1.5393,0,-1.4992,-1.5012,-1.5049,-1.5091,-1.5122,-1.5119,-1.5152,-1.5178,-1.5218,-1.5246,-1.5279,-1.5327,-1.5365,-1.5389,-1.5428,-1.5451,-1.5452,-1.5461,-1.546,-1.5465,-1.5407,-1.5395,-1.546,-1.546,-1.546,-1.546,-1.546,-1.546,-1.5034,-1.5085,-1.5096,-1.5158,-1.5178,-1.5223,-1.5242,-1.5268,-1.5291,-1.5344,-1.5377,-1.5392,-1.5418,-1.5459,-1.5494,-1.5499,-1.5514,-1.5524,-1.5529,-1.5475,-1.5469,-1.5462,-1.5452,-1.5527,-1.5527,-1.5585,-1.5585,-1.5585]}]]